| time (UTC) | temp C | wind direction | speed KPH | gust KPH | rain 1hr cm | rain 24hr cm | rain mn cm | humidity % | barometer mb |
| 20260506070121 | 11 | 113 | 12.9 | 19.3 | 0.00 | 0.30 | 0.00 | 74 | 1009.1 |
| 20260506060623 | 11 | 129 | 9.7 | 12.9 | 0.00 | 0.30 | 0.00 | 77 | 1008.5 |
| 20260506051121 | 11 | 130 | 9.7 | 11.3 | 0.00 | 0.30 | 0.00 | 78 | 1008.2 |
| 20260506050621 | 12 | 121 | 6.4 | 11.3 | 0.00 | 0.30 | 0.00 | 78 | 1008.2 |
| 20260506044621 | 12 | 108 | 4.8 | 9.7 | 0.00 | 0.30 | 0.00 | 82 | 1008.0 |
| 20260506043121 | 12 | 107 | 3.2 | 6.4 | 0.00 | 0.30 | 0.00 | 84 | 1007.9 |
| 20260506042621 | 12 | 107 | 3.2 | 4.8 | 0.00 | 0.30 | 0.00 | 84 | 1007.8 |
| 20260506041121 | 12 | 107 | 1.6 | 9.7 | 0.00 | 0.30 | 0.00 | 84 | 1007.6 |
| 20260506035621 | 12 | 87 | 6.4 | 9.7 | 0.00 | 0.30 | 0.00 | 80 | 1007.4 |
| 20260506034621 | 13 | 74 | 4.8 | 9.7 | 0.00 | 0.30 | 0.00 | 74 | 1007.2 |
| 20260506034121 | 14 | 71 | 4.8 | 9.7 | 0.00 | 0.30 | 0.00 | 72 | 1007.2 |
| 20260506031915 | 15 | 60 | 4.8 | 8.0 | 0.00 | 0.30 | 0.00 | 70 | 1006.9 |
| 20260506024914 | 15 | 55 | 4.8 | 8.0 | 0.00 | 0.30 | 0.00 | 69 | 1006.6 |
| 20260506023913 | 15 | 56 | 4.8 | 8.0 | 0.00 | 0.30 | 0.00 | 69 | 1006.4 |
| 20260506020114 | 15 | 60 | 4.8 | 8.0 | 0.00 | 0.30 | 0.00 | 69 | 1006.3 |
| 20260506014614 | 15 | 49 | 4.8 | 8.0 | 0.00 | 0.30 | 0.00 | 70 | 1006.2 |
| 20260506011330 | 15 | 37 | 8.0 | 12.9 | 0.00 | 0.30 | 0.00 | 68 | 1006.1 |
| 20260506005329 | 15 | 41 | 6.4 | 9.7 | 0.00 | 0.30 | 0.00 | 69 | 1006.1 |
| 20260506004039 | 15 | 30 | 6.4 | 12.9 | 0.00 | 0.30 | 0.00 | 71 | 1006.1 |
| 20260505225957 | 15 | 20 | 11.3 | 17.7 | 0.00 | 0.30 | 0.00 | 74 | 1005.9 |
| 20260505223500 | 16 | 0 | 0.0 | 9.7 | 0.00 | 0.30 | 0.00 | 72 | 1006.2 |
| 20260505221959 | 15 | 0 | 0.0 | 8.0 | 0.00 | 0.30 | 0.00 | 75 | 1006.5 |
| 20260505221459 | 15 | 129 | 3.2 | 8.0 | 0.00 | 0.30 | 0.00 | 76 | 1006.5 |
| 20260505213916 | 13 | 40 | 4.8 | 8.0 | 0.00 | 0.30 | 0.00 | 86 | 1006.9 |
| 20260505213416 | 12 | 39 | 3.2 | 8.0 | 0.00 | 0.30 | 0.00 | 86 | 1007.1 |
| 20260505211514 | 12 | 19 | 4.8 | 11.3 | 0.00 | 0.30 | 0.00 | 87 | 1007.3 |
| 20260505211014 | 12 | 11 | 4.8 | 11.3 | 0.00 | 0.30 | 0.00 | 87 | 1007.3 |
| 20260505210514 | 13 | 29 | 4.8 | 9.7 | 0.00 | 0.30 | 0.00 | 87 | 1007.3 |
| 20260505205014 | 12 | 55 | 4.8 | 12.9 | 0.00 | 0.30 | 0.00 | 86 | 1007.3 |
| 20260505204514 | 12 | 47 | 6.4 | 9.7 | 0.00 | 0.30 | 0.00 | 85 | 1007.3 |
| 20260505204014 | 13 | 16 | 4.8 | 8.0 | 0.00 | 0.30 | 0.00 | 83 | 1007.3 |
| 20260505201514 | 12 | 233 | 3.2 | 6.4 | 0.00 | 0.30 | 0.00 | 83 | 1007.2 |
| 20260505200014 | 12 | 222 | 6.4 | 12.9 | 0.00 | 0.30 | 0.00 | 85 | 1007.3 |
| 20260505193714 | 12 | 236 | 8.0 | 12.9 | 0.00 | 0.30 | 0.00 | 88 | 1007.5 |
| 20260505193214 | 12 | 218 | 8.0 | 12.9 | 0.00 | 0.30 | 0.00 | 88 | 1007.5 |
| 20260505192714 | 12 | 219 | 9.7 | 16.1 | 0.00 | 0.30 | 0.00 | 88 | 1007.4 |
| 20260505191214 | 11 | 230 | 8.0 | 17.7 | 0.00 | 0.30 | 0.00 | 90 | 1007.4 |
| 20260505190715 | 11 | 232 | 8.0 | 17.7 | 0.00 | 0.30 | 0.00 | 91 | 1007.4 |
| 20260505184714 | 11 | 232 | 8.0 | 16.1 | 0.03 | 0.30 | 0.30 | 92 | 1007.5 |
| 20260505183714 | 11 | 234 | 8.0 | 12.9 | 0.05 | 0.30 | 0.30 | 92 | 1007.4 |
| 20260505182551 | 11 | 228 | 9.7 | 12.9 | 0.05 | 0.30 | 0.30 | 93 | 1007.4 |
| 20260505181052 | 10 | 226 | 11.3 | 19.3 | 0.08 | 0.30 | 0.30 | 92 | 1007.4 |
| 20260505173051 | 10 | 233 | 11.3 | 19.3 | 0.03 | 0.25 | 0.25 | 92 | 1006.9 |
| 20260505172051 | 10 | 236 | 12.9 | 17.7 | 0.03 | 0.25 | 0.25 | 92 | 1006.9 |
| 20260505171551 | 10 | 256 | 11.3 | 20.9 | 0.00 | 0.23 | 0.23 | 92 | 1006.9 |
| 20260505170355 | 10 | 241 | 16.1 | 20.9 | 0.00 | 0.23 | 0.23 | 91 | 1006.8 |
| 20260505165355 | 10 | 229 | 9.7 | 17.7 | 0.00 | 0.23 | 0.23 | 91 | 1006.7 |
| 20260505164354 | 10 | 233 | 11.3 | 19.3 | 0.00 | 0.23 | 0.23 | 91 | 1006.6 |
| 20260505163355 | 10 | 223 | 11.3 | 22.5 | 0.00 | 0.23 | 0.23 | 91 | 1006.4 |
| 20260505161355 | 10 | 226 | 14.5 | 27.4 | 0.00 | 0.23 | 0.23 | 88 | 1006.2 |
| 20260505151904 | 11 | 245 | 6.4 | 16.1 | 0.00 | 0.23 | 0.23 | 87 | 1005.6 |
| 20260505150404 | 11 | 230 | 8.0 | 12.9 | 0.00 | 0.23 | 0.23 | 88 | 1005.4 |
| 20260505140638 | 11 | 239 | 11.3 | 16.1 | 0.00 | 0.23 | 0.23 | 88 | 1005.1 |
| 20260505130231 | 10 | 0 | 0.0 | 3.2 | 0.00 | 0.23 | 0.23 | 88 | 1004.7 |
| 20260505124230 | 11 | 250 | 12.9 | 17.7 | 0.00 | 0.23 | 0.23 | 85 | 1004.7 |
| 20260505115731 | 11 | 199 | 3.2 | 8.0 | 0.00 | 0.23 | 0.23 | 88 | 1004.4 |
| 20260505115231 | 11 | 199 | 3.2 | 8.0 | 0.00 | 0.23 | 0.23 | 88 | 1004.4 |
| 20260505114230 | 11 | 198 | 6.4 | 11.3 | 0.00 | 0.23 | 0.23 | 87 | 1004.4 |
| 20260505112730 | 11 | 161 | 9.7 | 14.5 | 0.00 | 0.23 | 0.23 | 86 | 1004.3 |
| 20260505112230 | 11 | 154 | 9.7 | 16.1 | 0.00 | 0.23 | 0.23 | 87 | 1004.2 |
| 20260505110231 | 11 | 161 | 8.0 | 12.9 | 0.03 | 0.23 | 0.23 | 89 | 1004.3 |
| 20260505090055 | 11 | 62 | 4.8 | 9.7 | 0.10 | 0.10 | 0.10 | 87 | 1005.1 |
| 20260505084555 | 12 | 66 | 6.4 | 12.9 | 0.03 | 0.03 | 0.03 | 86 | 1005.1 |
| 20260505083055 | 12 | 98 | 4.8 | 12.9 | 0.00 | 0.00 | 0.00 | 85 | 1005.1 |
| 20260505082555 | 12 | 109 | 8.0 | 12.9 | 0.00 | 0.00 | 0.00 | 85 | 1005.1 |
| 20260505081555 | 12 | 122 | 6.4 | 12.9 | 0.00 | 0.00 | 0.00 | 85 | 1005.0 |
| 20260505080055 | 12 | 151 | 8.0 | 11.3 | 0.00 | 0.00 | 0.00 | 85 | 1005.0 |
| 20260505075556 | 12 | 172 | 6.4 | 9.7 | 0.00 | 0.00 | 0.00 | 84 | 1005.0 |
| 20260505074055 | 12 | 186 | 4.8 | 11.3 | 0.00 | 0.00 | 0.00 | 86 | 1004.9 |
| 20260505073555 | 12 | 191 | 3.2 | 11.3 | 0.00 | 0.00 | 0.00 | 86 | 1004.9 |
| 20260505073055 | 12 | 143 | 4.8 | 11.3 | 0.00 | 0.00 | 0.00 | 85 | 1004.9 |
| 20260505072054 | 12 | 136 | 8.0 | 12.9 | 0.00 | 0.00 | 0.00 | 86 | 1004.8 |
| 20260505071054 | 12 | 129 | 8.0 | 16.1 | 0.00 | 0.00 | 0.00 | 85 | 1004.8 |